Flag for Canada Weather past 2 weeks in Kamloops, British Columbia, Canada

Now
34 °F

Overcast.


Feels Like: 27 °F
Forecast: 29 / 37 °F
Wind: 8 mph from East

Location: Kamloops

Current Time: Jan 31, 2015 at 10:45:31 PM

Latest Report: Jan 31, 2015 at 10:00 PM


Visibility: 40 mi

Pressure: 30.34 "Hg

Humidity: 70%

Dew point: 25 °F

Location of KamloopsLocation

Historic Weather in Kamloops — Graph

°F

Kamloops temperature yesterday

Maximum temperature yesterday: 39 °F (at 12:00 PM)
Minimum temperature yesterday: 30 °F (at 7:00 PM)
Average temperature yesterday: 35 °F

Past Weeks' High & Low Weather Summary

 TemperatureHumidityPressure
High45 °F (Jan 18, 5:00 PM)100% (Jan 18, 1:56 AM)30.60 "Hg (Jan 18, 1:56 AM)
Low21 °F (Jan 20, 5:02 AM)49% (Jan 31, 2:00 PM)29.60 "Hg (Jan 18, 6:00 AM)
Average34 °F82%30.25 "Hg
* Reported Jan 16 9:00 PM — Jan 31 9:00 PM, Kamloops, Weather by CustomWeather, © 2014

Note: Actual official high and low records may vary slightly from our data, if they occured in-between our weather recording intervals... More about our weather records

Advertising

Kamloops weather history for previous 24 hours

 ConditionsComfort  
Time TempWeatherWind HumidityBarometerVisibility
9:00 PM
Jan 31
34 °FOvercast.8 mph70%30.36 "Hg40 mi
8:00 PM34 °FOvercast.8 mph70%30.37 "Hg40 mi
7:00 PM34 °FMostly cloudy.2 mph70%30.39 "Hg40 mi
6:00 PM36 °FMostly cloudy.2 mph70%30.38 "Hg40 mi
5:00 PM36 °FMostly cloudy.3 mph60%30.38 "Hg40 mi
4:00 PM39 °FPartly sunny.3 mph52%30.37 "Hg40 mi
3:00 PM39 °FPartly sunny.5 mph52%30.39 "Hg40 mi
2:00 PM41 °FPartly sunny.7 mph49%30.39 "Hg40 mi
1:00 PM41 °FPassing clouds.2 mph53%30.41 "Hg40 mi
12:00 PM39 °FScattered clouds.2 mph61%30.42 "Hg40 mi
11:00 AM37 °FPassing clouds.3 mph70%30.44 "Hg40 mi
10:00 AM34 °FScattered clouds.No wind75%30.45 "Hg40 mi
9:00 AM30 °FPassing clouds.5 mph86%30.44 "Hg40 mi
8:00 AM28 °FScattered clouds.7 mph86%30.43 "Hg40 mi
7:00 AM30 °FPassing clouds.9 mph86%30.43 "Hg40 mi
6:00 AM36 °FPassing clouds.12 mph70%30.40 "Hg40 mi
5:00 AM34 °FPassing clouds.8 mph75%30.40 "Hg40 mi
4:00 AM36 °FPassing clouds.12 mph70%30.38 "Hg40 mi
3:00 AM36 °FPassing clouds.3 mph75%30.38 "Hg40 mi
2:00 AM32 °FPassing clouds.8 mph80%30.37 "Hg40 mi
1:00 AM28 °FPassing clouds.7 mph93%30.36 "Hg40 mi
12:00 AM30 °FPartly cloudy.6 mph86%30.35 "Hg40 mi
11:00 PM
Jan 30
32 °FPartly cloudy.5 mph80%30.34 "Hg30 mi
10:00 PM30 °FPassing clouds.6 mph86%30.32 "Hg30 mi
Weather by CustomWeather, © 2014

See weather overviewHow to use our weather pages